This demonstration page uses our WeatherBlox Daily Observations layout. Learn more.

Left ArrowRight Arrow

39.08367, -84.50855

Hourly Observations for April 18, 2021

Temp ( °F °C ) Dew Point ( °F °C ) Humidity (%) Winds ( mph kmh ) Pressure ( in mb ) Visibility ( mi km ) Precip ( " mm )
12:03 am 00:03 Mostly Cloudy with Fog 39 3.9 38 3.3 96 96 N N/A 29.96 1015 0 0 N/A
12:11 am 00:11 Mostly Cloudy with Mist and Fog 39 3.9 38 3.3 96 96 N N/A 29.96 1015 1 1 N/A
12:26 am 00:26 Clear with Mist and Fog 41 5 39 3.9 93 93 N N/A 29.97 1015 1 2 N/A
12:29 am 00:29 Mostly Cloudy with Mist and Fog 40 4.4 39 3.9 97 97 N N/A 29.97 1015 1 1 N/A
12:38 am 00:38 Mostly Cloudy with Fog 37 2.8 35 1.7 93 93 N N/A 29.97 1015 1 1 N/A
12:53 am 00:53 Mostly Cloudy with Fog 38 3.3 37 2.8 97 97 N N/A 29.95 1014 0 0 N/A
1:00 am 01:00 Mostly Cloudy with Fog 37 2.8 36 2.2 96 96 N N/A 29.96 1015 1 1 N/A
1:13 am 01:13 Partly Cloudy with Mist and Fog 38 3.3 37 2.8 97 97 N N/A 29.96 1015 1 2 N/A
1:19 am 01:19 Mostly Cloudy with Mist and Fog 38 3.3 38 3.3 100 100 N N/A 29.97 1015 1 1 N/A
1:29 am 01:29 Mostly Cloudy with Fog 37 2.8 36 2.2 96 96 NE 3 6 29.97 1015 0 0 N/A
1:39 am 01:39 Mostly Cloudy with Mist and Fog 38 3.3 37 2.8 97 97 N N/A 29.97 1015 1 2 N/A
1:41 am 01:41 Partly Cloudy with Mist and Fog 38 3.3 37 2.8 97 97 N N/A 29.97 1015 2 3 N/A
1:53 am 01:53 Mostly Clear with Mist and Fog 39 3.9 37 2.8 93 93 N N/A 29.95 1014 3 4 N/A
2:02 am 02:02 Mostly Cloudy with Mist and Fog 37 2.8 36 2.2 96 96 N N/A 29.96 1015 1 2 N/A
2:04 am 02:04 Mostly Cloudy with Fog 37 2.8 36 2.2 96 96 N N/A 29.96 1015 1 1 N/A
2:12 am 02:12 Mostly Cloudy with Fog 37 2.8 36 2.2 96 96 N N/A 29.96 1015 0 0 N/A
2:31 am 02:31 Mostly Cloudy with Mist and Fog 37 2.8 36 2.2 96 96 N N/A 29.96 1015 1 1 N/A
2:50 am 02:50 Mostly Cloudy with Fog 36 2 34 1 93 93 N N/A 29.96 1015 0 0 N/A
2:53 am 02:53 Mostly Cloudy with Fog 35 1.7 34 1.1 96 96 N N/A 29.94 1014 0 0 N/A
3:53 am 03:53 Mostly Cloudy with Fog 36 2.2 35 1.7 97 97 N N/A 29.94 1014 0 0 N/A
4:53 am 04:53 Mostly Cloudy with Fog 35 1.7 35 1.7 100 100 N N/A 29.94 1014 N/A N/A
5:04 am 05:04 Mostly Cloudy with Fog 36 2.2 35 1.7 97 97 N N/A 29.96 1015 0 0 N/A
5:32 am 05:32 Mostly Cloudy with Fog 37 2.8 36 2.2 96 96 N N/A 29.96 1015 N/A N/A
5:53 am 05:53 Mostly Cloudy with Fog 37 2.8 37 2.8 100 100 N N/A 29.94 1014 N/A N/A
6:53 am 06:53 Mostly Cloudy with Fog 37 2.8 36 2.2 96 96 N N/A 29.95 1014 N/A N/A
7:53 am 07:53 Mostly Cloudy with Fog 36 2.2 36 2.2 100 100 N N/A 29.97 1015 N/A N/A
8:53 am 08:53 Mostly Cloudy with Fog 41 5 41 5 100 100 N N/A 29.98 1015 0 0 N/A
9:20 am 09:20 Partly Cloudy with Mist and Fog 45 7.2 44 6.7 97 97 N N/A 29.98 1015 4 6 N/A
9:53 am 09:53 Sunny 49 9.4 43 6.1 80 80 VRB 3 6 29.97 1015 10 16 N/A
10:53 am 10:53 Sunny 55 12.8 38 3.3 53 53 N N/A 29.96 1015 10 16 N/A
11:53 am 11:53 Sunny 60 15.6 32 undefined 35 35 VRB 5 7 29.95 1014 10 16 N/A
12:53 pm 12:53 Sunny 61 16.1 32 undefined 34 34 VRB 5 7 29.94 1014 10 16 N/A
1:53 pm 13:53 Sunny 63 17.2 30 -1.1 29 29 VRB 7 11 29.92 1013 10 16 N/A
2:53 pm 14:53 Sunny 65 18.3 29 -1.7 26 26 WNW 12 19 29.91 1013 10 16 N/A
3:53 pm 15:53 Sunny 65 18.3 28 -2.2 25 25 WSW 8 13 29.89 1012 10 16 N/A
4:53 pm 16:53 Sunny 64 17.8 30 -1.1 28 28 N N/A 29.88 1012 10 16 N/A
5:53 pm 17:53 Sunny 64 17.8 28 -2.2 26 26 WNW 13 20 29.88 1012 10 16 N/A
6:53 pm 18:53 Sunny 60 15.6 28 -2.2 30 30 W 6 9 29.88 1012 10 16 N/A
7:53 pm 19:53 Sunny 57 13.9 31 -0.6 37 37 W 6 9 29.87 1012 10 16 N/A
8:53 pm 20:53 Clear 51 10.6 38 3.3 61 61 N N/A 29.89 1012 10 16 N/A
9:53 pm 21:53 Mostly Cloudy 48 8.9 38 3.3 68 68 N N/A 29.91 1013 10 16 N/A
10:53 pm 22:53 Cloudy 46 7.8 39 3.9 77 77 NE 5 7 29.91 1013 10 16 N/A
11:53 pm 23:53 Mostly Cloudy 45 7.2 40 4.4 83 83 N N/A 29.91 1013 10 16 N/A

Powered by AerisWeather